Weather History for KDKB - January, 2013

Change the Weather History Date:

Sunday, January 6, 2013

  Actual Average (KARR) Record (KARR)
Temperature  
Mean Temperature 23 °F 21 °F  
Max Temperature 33 °F 29 °F 60 °F (2008)
Min Temperature 13 °F 13 °F -17 °F (2014)
Degree Days  
Heating Degree Days 42 44  
Month to date heating degree days 262  
Since 1 July heating degree days 2911  
Cooling Degree Days 0 0  
Month to date cooling degree days 0  
Year to date cooling degree days 0  
Moisture  
Dew Point 19 °F    
Average Humidity 85    
Maximum Humidity 92    
Minimum Humidity 78    
Precipitation  
Precipitation 0.00 in 0.04 in 0.04 in (2009)
Month to date precipitation 0.25  
Year to date precipitation 0.25  
Sea Level Pressure  
Sea Level Pressure 30.12 in    
Wind  
Wind Speed 14 mph (West)    
Max Wind Speed 20 mph    
Max Gust Speed 30 mph    
Visibility 8 miles    
Events      
T = Trace of Precipitation, MM = Missing Value Source: NWS Daily Summary

Daily Weather History Graph

Daily Weather History Graph

Search for Another Location

Airport or City:

Trip Planner

Search our weather history database for the weather conditions in past years. The results will help you decide how hot, cold, wet, or windy it might be!

Date:

Astronomy

Jan. 06, 2013 Rise Set
Actual Time 7:22 AM CST 4:39 PM CST
Civil Twilight 6:51 AM CST 5:10 PM CST
Nautical Twilight 6:16 AM CST 5:45 PM CST
Astronomical Twilight 5:42 AM CST 6:19 PM CST
Moon 1:34 AM CST (1/6) 12:08 PM CST (1/6)
Length of Visible Light 10h 19m
Length of Day
9h 16m
Waning Crescent, 33% of the Moon is Illuminated
Jan 6
Waning Crescent
Jan 11
New
Jan 18
First Quarter
Jan 26
Full
Feb 3
Last Quarter

Hourly Weather History & Observations

Time (CST) Temp. Windchill Dew Point Humidity Pressure Visibility Wind Dir Wind Speed Gust Speed Precip Events Conditions
12:15 AM 32.9 °F 22.8 °F 30.6 °F 91% 29.91 in 7.0 mi SW 15.0 mph - N/A   Overcast
12:35 AM 32.9 °F 23.2 °F 30.7 °F 92% 29.91 in 7.0 mi SW 13.8 mph 20.7 mph N/A   Overcast
12:55 AM 32.9 °F 22.8 °F 30.6 °F 91% 29.91 in 7.0 mi SW 15.0 mph 19.6 mph N/A   Overcast
1:15 AM 33.1 °F 23.4 °F 30.6 °F 90% 29.90 in 7.0 mi SW 13.8 mph 19.6 mph N/A   Overcast
1:55 AM 33.1 °F 22.2 °F 30.2 °F 89% 29.91 in 7.0 mi WSW 17.3 mph 23.0 mph N/A   Overcast
2:15 AM 32.7 °F 23.4 °F 29.8 °F 89% 29.90 in 7.0 mi WSW 12.7 mph 20.7 mph N/A   Overcast
2:35 AM 32.0 °F 20.5 °F 28.9 °F 88% 29.91 in 7.0 mi WSW 18.4 mph 25.3 mph N/A   Overcast
2:55 AM 30.2 °F 18.5 °F 26.4 °F 86% 29.92 in 10.0 mi WSW 17.3 mph 29.9 mph N/A   Mostly Cloudy
3:15 AM 28.0 °F 16.1 °F 23.7 °F 84% 29.93 in 10.0 mi WSW 16.1 mph 26.5 mph N/A   Mostly Cloudy
3:35 AM 27.3 °F 16.1 °F 23.7 °F 86% 29.92 in 10.0 mi West 13.8 mph 20.7 mph N/A   Mostly Cloudy
3:55 AM 26.6 °F 15.2 °F 23.0 °F 86% 29.93 in 10.0 mi West 13.8 mph - N/A   Mostly Cloudy
4:15 AM 25.5 °F 11.6 °F 22.1 °F 87% 29.94 in 10.0 mi West 19.6 mph - N/A   Mostly Cloudy
4:35 AM 24.8 °F 11.9 °F 21.0 °F 86% 29.94 in 10.0 mi West 16.1 mph 25.3 mph N/A   Mostly Cloudy
4:55 AM 24.3 °F 11.7 °F 20.3 °F 85% 29.94 in 10.0 mi West 15.0 mph 24.2 mph N/A   Overcast
5:15 AM 23.0 °F 8.3 °F 19.4 °F 86% 29.95 in 10.0 mi West 19.6 mph 27.6 mph N/A   Overcast
5:35 AM 22.3 °F 7.4 °F 18.1 °F 84% 29.96 in 10.0 mi West 19.6 mph 24.2 mph N/A   Mostly Cloudy
5:55 AM 22.1 °F 8.0 °F 18.1 °F 85% 29.97 in 10.0 mi West 17.3 mph 24.2 mph N/A   Mostly Cloudy
6:15 AM 21.9 °F 7.3 °F 18.0 °F 85% 29.98 in 10.0 mi West 18.4 mph 23.0 mph N/A   Overcast
6:35 AM 20.8 °F 5.9 °F 16.7 °F 84% 29.99 in 10.0 mi West 18.4 mph 23.0 mph N/A   Mostly Cloudy
6:55 AM 19.9 °F 5.2 °F 15.8 °F 84% 29.99 in 10.0 mi West 17.3 mph 23.0 mph N/A   Scattered Clouds
7:15 AM 19.4 °F 6.6 °F 15.6 °F 85% 30.01 in 10.0 mi West 12.7 mph 21.9 mph N/A   Clear
7:35 AM 19.0 °F 5.6 °F 15.3 °F 85% 30.01 in 10.0 mi West 13.8 mph 18.4 mph N/A   Mostly Cloudy
7:55 AM 18.5 °F 5.5 °F 14.9 °F 86% 30.02 in 10.0 mi West 12.7 mph 18.4 mph N/A   Scattered Clouds
8:15 AM 19.2 °F 6.4 °F 15.1 °F 84% 30.04 in 10.0 mi West 12.7 mph - N/A   Clear
8:35 AM 19.8 °F 5.0 °F 15.6 °F 84% 30.05 in 7.0 mi WNW 17.3 mph - N/A   Clear
8:55 AM 19.8 °F 5.4 °F 15.6 °F 84% 30.05 in 10.0 mi WNW 16.1 mph 20.7 mph N/A   Mostly Cloudy
9:15 AM 20.7 °F 6.1 °F 16.2 °F 83% 30.07 in 7.0 mi WNW 17.3 mph 21.9 mph N/A   Scattered Clouds
9:35 AM 21.2 °F 8.9 °F 17.1 °F 84% 30.08 in 7.0 mi WNW 12.7 mph 21.9 mph N/A   Mostly Cloudy
9:55 AM 21.7 °F 7.5 °F 17.4 °F 83% 30.09 in 7.0 mi WNW 17.3 mph 23.0 mph N/A   Overcast
10:15 AM 22.1 °F 8.5 °F 17.6 °F 83% 30.09 in 7.0 mi WNW 16.1 mph - N/A   Overcast
10:35 AM 22.6 °F 9.2 °F 18.3 °F 83% 30.11 in 7.0 mi WNW 16.1 mph - N/A   Overcast
10:55 AM 23.4 °F 9.6 °F 19.0 °F 84% 30.11 in 7.0 mi WNW 17.3 mph - N/A   Overcast
11:15 AM 23.9 °F 12.3 °F 19.4 °F 83% 30.11 in 10.0 mi NW 12.7 mph 19.6 mph N/A   Overcast
11:35 AM 25.3 °F 13.1 °F 20.7 °F 82% 30.11 in 7.0 mi WNW 15.0 mph - N/A   Overcast
11:55 AM 25.9 °F 13.8 °F 21.0 °F 82% 30.12 in 10.0 mi NW 15.0 mph - N/A   Overcast
12:15 PM 26.6 °F 13.4 °F 21.7 °F 82% 30.12 in 7.0 mi WNW 18.4 mph 21.9 mph N/A   Overcast
12:35 PM 26.4 °F 12.8 °F 21.2 °F 81% 30.13 in 10.0 mi WNW 19.6 mph - N/A   Mostly Cloudy
12:55 PM 28.0 °F 16.1 °F 22.5 °F 80% 30.13 in 10.0 mi WNW 16.1 mph - N/A   Scattered Clouds
1:15 PM 27.7 °F 15.6 °F 21.9 °F 79% 30.13 in 10.0 mi WNW 16.1 mph 25.3 mph N/A   Scattered Clouds
1:35 PM 27.9 °F 15.5 °F 22.1 °F 79% 30.14 in 7.0 mi WNW 17.3 mph 21.9 mph N/A   Scattered Clouds
1:55 PM 27.1 °F 14.9 °F 21.2 °F 78% 30.14 in 10.0 mi WNW 16.1 mph 20.7 mph N/A   Scattered Clouds
2:15 PM 27.3 °F 14.8 °F 21.2 °F 78% 30.16 in 10.0 mi WNW 17.3 mph 24.2 mph N/A   Clear
2:35 PM 27.1 °F 15.4 °F 21.2 °F 78% 30.17 in 7.0 mi WNW 15.0 mph 25.3 mph N/A   Clear
2:55 PM 27.5 °F 15.4 °F 21.9 °F 80% 30.18 in 10.0 mi West 16.1 mph - N/A   Clear
3:15 PM 27.1 °F 16.4 °F 21.2 °F 78% 30.19 in 7.0 mi WNW 12.7 mph 18.4 mph N/A   Clear
3:35 PM 26.6 °F 15.7 °F 21.0 °F 79% 30.19 in 7.0 mi WNW 12.7 mph - N/A   Clear
3:55 PM 25.9 °F 14.3 °F 20.3 °F 79% 30.21 in 7.0 mi WNW 13.8 mph - N/A   Clear
4:15 PM 24.8 °F 14.0 °F 19.4 °F 80% 30.21 in 7.0 mi WNW 11.5 mph 17.3 mph N/A   Clear
4:35 PM 24.8 °F 14.0 °F 19.8 °F 81% 30.23 in 7.0 mi WNW 11.5 mph - N/A   Clear
4:55 PM 24.4 °F 13.0 °F 19.4 °F 81% 30.23 in 7.0 mi WNW 12.7 mph 19.6 mph N/A   Clear
5:15 PM 23.9 °F 12.3 °F 19.4 °F 83% 30.24 in 10.0 mi WNW 12.7 mph - N/A   Clear
5:35 PM 23.4 °F 12.2 °F 18.9 °F 83% 30.25 in 10.0 mi WNW 11.5 mph - N/A   Clear
5:55 PM 22.5 °F 11.7 °F 18.1 °F 83% 30.26 in 7.0 mi WNW 10.4 mph - N/A   Clear
6:15 PM 21.6 °F 11.3 °F 17.6 °F 85% 30.26 in 7.0 mi WNW 9.2 mph - N/A   Clear
6:35 PM 21.2 °F 12.6 °F 17.6 °F 86% 30.27 in 7.0 mi West 6.9 mph - N/A   Clear
6:55 PM 21.2 °F 11.7 °F 17.6 °F 86% 30.27 in 7.0 mi West 8.1 mph - N/A   Clear
7:15 PM 20.5 °F 11.7 °F 17.2 °F 87% 30.28 in 7.0 mi West 6.9 mph - N/A   Clear
7:35 PM 20.3 °F 12.5 °F 17.1 °F 87% 30.28 in 7.0 mi West 5.8 mph - N/A   Clear
7:55 PM 18.9 °F 13.7 °F 15.8 °F 88% 30.29 in 7.0 mi WSW 3.5 mph - N/A   Clear
8:15 PM 18.9 °F 12.1 °F 15.8 °F 88% 30.29 in 7.0 mi SW 4.6 mph - N/A   Clear
8:35 PM 19.0 °F 13.9 °F 15.8 °F 87% 30.28 in 7.0 mi WSW 3.5 mph - N/A   Clear
8:55 PM 18.5 °F 10.4 °F 15.6 °F 89% 30.29 in 5.0 mi WSW 5.8 mph - N/A   Clear
9:15 PM 18.1 °F 10.0 °F 15.1 °F 88% 30.29 in 7.0 mi WSW 5.8 mph - N/A   Clear
9:35 PM 18.0 °F 9.8 °F 14.9 °F 88% 30.30 in 7.0 mi WSW 5.8 mph - N/A   Clear
9:55 PM 17.1 °F 8.7 °F 13.8 °F 87% 30.31 in 7.0 mi SW 5.8 mph - N/A   Clear
10:15 PM 16.3 °F 7.8 °F 13.1 °F 87% 30.31 in 7.0 mi SW 5.8 mph - N/A   Clear
10:35 PM 15.1 °F 9.4 °F 12.0 °F 88% 30.30 in 7.0 mi SW 3.5 mph - N/A   Clear
10:55 PM 13.8 °F 6.2 °F 10.8 °F 88% 30.30 in 7.0 mi SW 4.6 mph - N/A   Clear
11:15 PM 15.8 °F 7.2 °F 12.2 °F 86% 30.31 in 10.0 mi WSW 5.8 mph - N/A   Clear
11:35 PM 16.2 °F 7.6 °F 12.9 °F 87% 30.31 in 10.0 mi WSW 5.8 mph - N/A   Clear
11:55 PM 15.4 °F 9.8 °F 11.8 °F 86% 30.30 in 10.0 mi WSW 3.5 mph - N/A   Clear